Poteau, OK

4:21 AM CDT on September 24, 2017 (GMT -0500)
Kerr

Weather History for KRKR - January, 2012

Change the Weather History Date:

Wednesday, January 25, 2012

  Actual Average (KFSM) Record (KFSM)
Temperature  
Mean Temperature 43 °F -  
Max Temperature 44 °F 49 °F 80 °F (1950)
Min Temperature 42 °F 29 °F 2 °F (1905)
Degree Days  
Heating Degree Days 22    
Moisture  
Dew Point 43 °F    
Average Humidity 96    
Maximum Humidity 100    
Minimum Humidity 93    
Precipitation  
Precipitation 0.68 in - - ()
Sea Level Pressure  
Sea Level Pressure 30.00 in    
Wind  
Wind Speed 5 mph (NNE)    
Max Wind Speed 16 mph    
Max Gust Speed 24 mph    
Visibility 6 miles    
Events Rain , Thunderstorm    
Averages and records for this station are not official NWS values.
T = Trace of Precipitation, MM = Missing Value Source: NWS Daily Summary

Daily Weather History Graph

Daily Weather History Graph

Search for Another Location

Airport or City:

Trip Planner

Search our weather history database for the weather conditions in past years. The results will help you decide how hot, cold, wet, or windy it might be!

Date:

Astronomy

Jan. 25, 2012 Rise Set
Actual Time 7:22 AM CST 5:39 PM CST
Civil Twilight 6:55 AM CST 6:06 PM CST
Nautical Twilight 6:24 AM CST 6:37 PM CST
Astronomical Twilight 5:54 AM CST 7:07 PM CST
Moon 8:29 AM CST (1/25) 8:24 PM CST (1/25)
Length of Visible Light 11h 11m
Length of Day
10h 17m
Waxing Crescent, 7% of the Moon is Illuminated
Jan 25
Waxing Crescent
Jan 30
First Quarter
Feb 7
Full
Feb 14
Last Quarter
Feb 21
New

Hourly Weather History & Observations

Time (CST) Temp. Windchill Dew Point Humidity Pressure Visibility Wind Dir Wind Speed Gust Speed Precip Events Conditions
12:15 AM 42.8 °F - 42.8 °F 100% 30.11 in 1.2 mi Calm Calm - 0.12 in   Unknown
12:35 AM 42.8 °F 39.3 °F 42.8 °F 100% 30.09 in 4.0 mi NNE 5.8 mph - 0.19 in Rain Rain
12:55 AM 42.8 °F 38.0 °F 42.8 °F 100% 30.08 in 5.0 mi NNE 8.1 mph - 0.26 in Rain Rain
1:15 AM 42.8 °F 39.3 °F 42.8 °F 100% 30.08 in 2.5 mi NNE 5.8 mph - 0.07 in Rain Rain
1:35 AM 42.8 °F 41.1 °F 42.8 °F 100% 30.07 in 1.8 mi NNE 3.5 mph - 0.16 in Rain Rain
1:55 AM 42.8 °F - 42.8 °F 100% 30.06 in 1.2 mi Calm Calm - 0.32 in Thunderstorm Unknown
2:15 AM 42.8 °F - 42.8 °F 100% 30.06 in 2.5 mi Calm Calm - 0.08 in Rain Heavy Rain
2:35 AM 42.8 °F 37.5 °F 42.8 °F 100% 30.06 in 10.0 mi NNE 9.2 mph - 0.09 in Rain Light Rain
2:55 AM 42.8 °F 37.0 °F 42.8 °F 100% 30.04 in 10.0 mi NNE 10.4 mph - 0.10 in   Overcast
3:15 AM 42.8 °F 36.6 °F 41.0 °F 93% 30.03 in 5.0 mi NNE 11.5 mph 17.3 mph N/A Rain , Thunderstorm Heavy Thunderstorms and Rain
3:35 AM 42.8 °F 35.4 °F 41.0 °F 93% 30.03 in 10.0 mi NNE 15.0 mph 21.9 mph N/A Rain , Thunderstorm Light Thunderstorms and Rain
3:55 AM 42.8 °F 36.2 °F 41.0 °F 93% 30.08 in 4.0 mi NNW 12.7 mph 18.4 mph N/A Rain , Thunderstorm Heavy Thunderstorms and Rain
4:15 AM 42.8 °F 35.8 °F 41.0 °F 93% 30.09 in 2.5 mi North 13.8 mph - N/A Rain , Thunderstorm Rain
4:35 AM 42.8 °F 35.4 °F 41.0 °F 93% 30.12 in 2.0 mi North 15.0 mph 20.7 mph N/A Rain , Thunderstorm Rain
5:15 AM 42.8 °F 35.1 °F 41.0 °F 93% 30.05 in 7.0 mi ENE 16.1 mph 24.2 mph N/A Rain , Thunderstorm Rain
5:35 AM 42.8 °F 37.5 °F 42.8 °F 100% 30.06 in 3.0 mi NE 9.2 mph 18.4 mph N/A Rain , Thunderstorm Thunderstorms and Rain
5:55 AM 42.8 °F 38.0 °F 42.8 °F 100% 30.02 in 7.0 mi NNE 8.1 mph - N/A Rain Rain
6:15 AM 42.8 °F - 42.8 °F 100% 30.04 in 4.0 mi Calm Calm - N/A Rain , Thunderstorm Thunderstorms and Rain
6:35 AM 42.8 °F 40.1 °F 42.8 °F 100% 30.03 in 3.0 mi ESE 4.6 mph - N/A   Unknown
7:15 AM 42.8 °F 38.6 °F 42.8 °F 100% 30.02 in 2.5 mi NW 6.9 mph - N/A Thunderstorm Overcast
7:35 AM 42.8 °F - 42.8 °F 100% 30.03 in 4.0 mi Calm Calm - N/A   Unknown
7:55 AM 42.8 °F - 42.8 °F 100% 30.03 in 5.0 mi Calm Calm - N/A Rain Rain
8:15 AM 42.8 °F - 42.8 °F 100% 30.03 in 10.0 mi Calm Calm - N/A Rain Rain
8:35 AM 44.6 °F 43.1 °F 42.8 °F 93% 30.04 in 10.0 mi North 3.5 mph - N/A Rain Rain
8:55 AM 44.6 °F - 42.8 °F 93% 30.04 in 7.0 mi Calm Calm - N/A Rain Light Rain
9:15 AM 44.6 °F - 42.8 °F 93% 30.05 in 10.0 mi Calm Calm - N/A Rain Light Rain
9:55 AM 44.6 °F - 42.8 °F 93% 30.06 in 10.0 mi Calm Calm - N/A Rain Light Rain
10:15 AM 44.6 °F 43.1 °F 42.8 °F 93% 30.04 in 7.0 mi NNW 3.5 mph - N/A Rain Rain
10:35 AM 44.6 °F - 44.6 °F 100% 30.04 in 3.0 mi Calm Calm - N/A Rain Rain
10:55 AM 44.6 °F - 44.6 °F 100% 30.06 in 10.0 mi Calm Calm - N/A Rain Light Rain
11:35 AM 44.6 °F 42.2 °F 44.6 °F 100% 30.03 in 10.0 mi NNE 4.6 mph - N/A Rain Rain
11:55 AM 44.6 °F 41.4 °F 44.6 °F 100% 30.02 in 7.0 mi NNE 5.8 mph - N/A Rain , Thunderstorm Rain
12:15 PM 44.6 °F 40.7 °F 42.8 °F 93% 30.00 in 7.0 mi NNE 6.9 mph - N/A Rain Rain
12:35 PM 44.6 °F 42.2 °F 42.8 °F 93% 29.98 in 7.0 mi NE 4.6 mph - N/A Rain Rain
12:55 PM 44.6 °F 40.2 °F 42.8 °F 93% 29.94 in 7.0 mi North 8.1 mph - N/A Rain Rain
1:15 PM 44.6 °F 41.4 °F 42.8 °F 93% 29.93 in 7.0 mi NNE 5.8 mph - N/A Rain Rain
1:35 PM 44.6 °F 40.2 °F 42.8 °F 93% 29.89 in 10.0 mi NE 8.1 mph - N/A Rain Light Rain
1:55 PM 44.6 °F 41.4 °F 42.8 °F 93% 29.85 in 10.0 mi NE 5.8 mph 16.1 mph N/A Rain Light Rain
2:15 PM 44.6 °F 40.7 °F 42.8 °F 93% 29.87 in 10.0 mi NE 6.9 mph - N/A   Overcast
2:35 PM 44.6 °F 43.1 °F 42.8 °F 93% 29.90 in 10.0 mi NNE 3.5 mph - N/A   Overcast
2:55 PM 44.6 °F 40.7 °F 42.8 °F 93% 29.86 in 3.0 mi NNE 6.9 mph - N/A Rain Light Rain
3:15 PM 44.6 °F 40.2 °F 42.8 °F 93% 29.86 in 3.0 mi North 8.1 mph - N/A Rain Heavy Rain
3:35 PM 44.6 °F 40.2 °F 42.8 °F 93% 29.87 in 1.8 mi North 8.1 mph - N/A Rain Light Rain
4:15 PM 44.6 °F 39.7 °F 42.8 °F 93% 29.86 in 1.2 mi North 9.2 mph - N/A   Overcast
4:35 PM 44.6 °F 40.7 °F 42.8 °F 93% 29.87 in 3.0 mi NNE 6.9 mph - N/A   Heavy Drizzle
4:55 PM 44.6 °F 40.7 °F 42.8 °F 93% 29.85 in 5.0 mi North 6.9 mph - N/A   Drizzle
5:15 PM 44.6 °F 41.4 °F 42.8 °F 93% 29.88 in 7.0 mi North 5.8 mph - N/A   Overcast
5:35 PM 44.6 °F 39.7 °F 42.8 °F 93% 29.88 in 5.0 mi North 9.2 mph - N/A   Overcast
5:55 PM 44.6 °F 40.7 °F 42.8 °F 93% 29.90 in 5.0 mi North 6.9 mph - N/A   Overcast
6:15 PM 44.6 °F 40.2 °F 42.8 °F 93% 29.91 in 7.0 mi North 8.1 mph - N/A   Overcast
6:35 PM 44.6 °F 41.4 °F 42.8 °F 93% 29.92 in 10.0 mi North 5.8 mph - N/A   Unknown
6:55 PM 44.6 °F 43.1 °F 42.8 °F 93% 29.92 in 4.0 mi NNE 3.5 mph - N/A   Overcast
7:15 PM 44.6 °F - 42.8 °F 93% 29.92 in 3.0 mi Calm Calm - N/A   Overcast
7:35 PM 44.6 °F - 42.8 °F 93% 29.92 in 2.0 mi Calm Calm - N/A   Overcast
7:55 PM 44.6 °F 43.1 °F 44.6 °F 100% 29.91 in 2.0 mi NNE 3.5 mph - N/A   Mist
8:15 PM 44.6 °F - 44.6 °F 100% 29.91 in 3.0 mi Calm Calm - N/A   Mist
8:35 PM 44.6 °F - 44.6 °F 100% 29.92 in 2.5 mi Calm Calm - N/A   Unknown
8:55 PM 44.6 °F - 44.6 °F 100% 29.89 in 3.0 mi Calm Calm - N/A   Mist
9:15 PM 44.6 °F - 42.8 °F 93% 29.89 in 3.0 mi Calm Calm - N/A   Mist
9:35 PM 44.6 °F 42.2 °F 42.8 °F 93% 29.89 in 3.0 mi East 4.6 mph - N/A   Unknown
9:55 PM 44.6 °F - 42.8 °F 93% 29.89 in 4.0 mi Calm Calm - N/A   Mist
10:15 PM 44.6 °F - 42.8 °F 93% 29.88 in 4.0 mi Calm Calm - N/A Rain Rain
10:35 PM 44.6 °F - 42.8 °F 93% 29.88 in 5.0 mi Calm Calm - N/A   Mist
10:55 PM 44.6 °F - 42.8 °F 93% 29.88 in 7.0 mi Calm Calm - N/A   Unknown
11:15 PM 44.6 °F - 44.6 °F 100% 29.88 in 7.0 mi Calm Calm - N/A   Unknown
11:35 PM 44.6 °F - 44.6 °F 100% 29.87 in 5.0 mi Calm Calm - N/A   Mist
11:55 PM 44.6 °F - 44.6 °F 100% 29.86 in 5.0 mi Calm Calm - N/A   Mist